Retour au catalogue

COSMOS 1333

ActifMilitairePO
NORAD 13033·PAYLOAD·🇷🇺 Russia

Lancé Jan 14, 1982 depuis Plesetsk Cosmodrome

Loading…

Prochains Passages (prochaines 24 heures)

TLE

FraisSource: Space-Track

Époque: Sep 14, 2026, 00:36 UTC

1 13033U 82003A   26257.02562742  .00000035  00000-0  21617-4 0  9992
2 13033  82.9381  99.6017 0031122 303.8712 208.6359 13.73479312238385

Suivez COSMOS 1333 en temps réel avec AllMySat

Download on the App Store